Regional Weather Roundup
Issued by NWS Charleston, SC

Current Version | Previous Version | Graphics & Text | Print | Product List | Glossary On
Versions: 1 2 3 4 5 6 7 8 9 10 11 12 13 14 15 16 17 18 19 20 21 22 23 24 25 26 27 28 29 30 31 32 33 34 35 36 37 38 39 40 41 42 43 44 45 46 47 48 49 50
622
ASUS42 KCHS 261728
RWRCHS

REGIONAL WEATHER ROUNDUP
NATIONAL WEATHER SERVICE CHARLESTON SC
100 PM EDT FRI AUG 26 2016

NOTE: "FAIR" INDICATES FEW OR NO CLOUDS BELOW 12,000 FEET WITH NO
SIGNIFICANT WEATHER AND/OR OBSTRUCTIONS TO VISIBILITY.

NOT ALL STATIONS ARE QUALITY CONTROLLED. USE DATA WITH CAUTION...
ESPECIALLY DEWPOINT OBSERVATIONS.

SCZ027-030-031-034>040-042>050-261800-
...SOUTHEAST SOUTH CAROLINA...

CITY           SKY/WX    TMP DP  RH WIND       PRES   REMARKS
N CHARLESTON   MOSUNNY   90  69  50 E10       30.09F HX  94
WATERFRONT PRK   N/A     84  75  74 SE8       30.08F HX  92
MOUNT PLEASANT FAIR      88  73  62 E7        30.09F HX  96
JOHNS ISLAND   FAIR      88  75  66 E10       30.09F HX  97
PINOPOLIS        N/A     84  72  65 CALM      30.04F
MONCKS CORNER  FAIR      88  70  55 E5        30.09F HX  92
SUMMERVILLE    FAIR      90  72  55 N7        30.09F HX  96
BEAUFORT MCAS  MOSUNNY   90  71  53 E10       30.09F HX  96
BEAUFORT ARPT  FAIR      88  72  58 E8        30.08F HX  94
HILTON HEAD IS MOSUNNY   90  75  62 NE7       30.10  HX 100
WALTERBORO     MOSUNNY   91  70  49 E6        30.10F HX  97
ALLENDALE      FAIR      91  70  49 VRB6G12   30.08F HX  97

...SOUTHERN MIDLANDS AND PEE DEE...

CITY           SKY/WX    TMP DP  RH WIND       PRES   REMARKS
GEORGETOWN     FAIR      86  72  62 E7        30.11F HX  92
KINGSTREE      FAIR      91  66  43 CALM      30.09F HX  94
ORANGEBURG     MOSUNNY   90  70  51 VRB5      30.10F HX  95
BARNWELL       NOT AVBL
AIKEN          FAIR      91  68  46 SE5       30.13F HX  95
MANNING        FAIR      86  70  58 CALM      30.09F HX  90
COLUMBIA       MOSUNNY   95  69  42 E10       30.08F HX 100
SUMTER         SUNNY     91  69  49 S6        30.07F HX  95
FLORENCE       PTSUNNY   92  70  48 S7        30.09F HX  97
MYRTLE BEACH   NOT AVBL
N MYRTLE BEACH SUNNY     84  72  67 S8        30.10F

$$

GAZ063-065-086>088-099>101-113>116-118-119-134>141-150-261800-
...SOUTHEAST GEORGIA...

CITY           SKY/WX    TMP DP  RH WIND       PRES   REMARKS
SAVANNAH ARPT  PTSUNNY   90  69  50 NE9G25    30.09F HX  94
HUNTER AAF     CLOUDY    87  76  68 E12G21    30.06F HX  97
FORT STEWART   MOSUNNY   90  69  50 E7        30.05F HAZE    HX  95
STATESBORO     PTSUNNY   91  72  52 NE5       30.09S HX  98
SYLVANIA       NOT AVBL
CLAXTON        FAIR      91  71  53 E9G17     30.08F HX  97

...CSRA...CENTRAL AND FAR SOUTHEAST GEORGIA...

CITY           SKY/WX    TMP DP  RH WIND       PRES   REMARKS
THOMSON        SUNNY     94  73  51 MISG      30.14F HX 102
AUGUSTA-BUSH   MOSUNNY   92  67  43 CALM      30.08F HX  95
AUGUSTA-DANIEL SUNNY     92  69  47 VRB5      30.10F HX  97
SWAINSBORO     FAIR      91  68  46 SE13      30.09F HX  95
VIDALIA        CLOUDY    90  73  58 NE9       30.09S HX  98
EASTMAN        PTSUNNY   92  54  28 E6        30.11S
HAZLEHURST     PTSUNNY   92  69  47 CALM      30.07F HX  96
ALMA           MOSUNNY   89  67  47 VRB7      30.07F HX  92
WAYCROSS         N/A     92  73  54 E10       30.07S HX 100
JESUP          PTSUNNY   90  75  62 E10       30.07F HX 100
BAXLEY         FAIR      91  72  52 E6        30.07F HX  98
BRUNSWICK      CLOUDY    86  73  66 NE15      30.08F HX  93
SAINT SIMONS   LGT RAIN  83  74  74 E13       30.07F

$$

SCZ027-028-034-036>038-045-046-048>050-GAZ119-141-261800-
...LAKE AND SUPPLEMENTAL COASTAL OBSERVATIONS...

STATION/POSITION TIME  TEMP    WIND        PRES    WAVE   SWELL
                       AIR SEA DIR/SP/G            HT/PER HT/PER/DIR
                 (UTC) (F)     (DEG/KT/KT) (MB)    (FT/S) (FT/S/D)
WINYAH BAY       1600   83     120/  6     1019.0
LAKE MURRAY      1600   86     210/  5/  6 1018.6F
ACE BASIN NERRS  1615   89      50/  3     1019.0F
FORT PULASKI     1700   83 85   70/ 12/ 13 1019.4F
SAPELO ISLAND    1700   88      60/ 13     1019.0S

$$

ANZ835-935-AMZ111-154-330-350-352-354-370-450-454-472-261800-
...C-MAN AND BUOY OBSERVATIONS...

STATION/POSITION TIME  TEMP    WIND        PRES    WAVE   SWELL
                       AIR SEA DIR/SP/G            HT/PER HT/PER/DIR
                 (UTC) (F)     (DEG/KT/KT) (MB)    (FT/S) (FT/S/D)
BUOY 41004       1650   82 84   40/ 12/ 14 1018.8F   2/ 8   2/ 90/ 8
BUOY 41008       1650   83 85   80/ 16/ 17 1018.3F   5/ 8   3/110/ 8
FOLLY BEACH CMAN 1700   83      80/ 10/ 11 1019.4F
CAPERS NEARSHORE 1608   82 85   60/  6/  8 1019.6F
FRIPP NEARSHORE  1708   83 86   80/ 12/ 16 1018.2F


STATION/POSITION TIME  TEMP    WIND        PRES    WAVE   SWELL
                       AIR SEA DIR/SP/G            HT/PER HT/PER/DIR
                 (UTC) (F)     (DEG/KT/KT) (MB)    (FT/S) (FT/S/D)
5E ST. MARYS GA  1701      84                N/A     4/ 8
FRYING PAN BUOY  1700   82 85   30/  8/ 10 1019.0F
BUOY 41025       1650   82 85   CALM  /  2 1019.6F   2/ 8   2/ 70/ 8
CAPE LOOKOUT NC  1700   82     140/  4/  5 1019.3F
BUOY 41002       1650   82 84   60/ 21/ 23 1016.5F   6/ 6
BUOY 41010       NOT AVBL
ST AUGUSTINE FL  1700   82 84   60/ 15/ 17 1018.4F


$$




USA.gov is the U.S. government's official web portal to all federal, state and local government web resources and services.